SCP
0 0 0 0 0 0 0 0 0 0 0 0 0 0 0 0 1 1 1 1 1 1 1 0 0 0 0 0 0 0 0 0 0 0 0 0 0 0 0 0 0 0 0 0
0 0 0 0 0 0 0 0 0 0 0 0 0 0 0 0 0 1 1 1 1 1 1 1 0 0 0 0 0 0 0 0 0 0 0 0 0 0 0 0 0 0 0 0
0 0 0 0 0 0 0 0 0 0 0 0 0 0 0 0 0 0 1 1 1 1 1 1 0 0 0 0 0 0 0 0 0 0 0 0 0 0 0 0 0 0 0 0
0 0 0 0 0 0 0 0 0 0 0 0 0 0 0 0 0 0 0 1 1 1 1 1 0 0 0 0 0 0 0 0 0 0 0 0 0 0 0 0 0 0 0 0
0 0 0 0 0 0 0 0 0 0 0 0 0 0 0 0 0 0 0 0 1 1 1 1 1 0 0 0 0 0 0 0 0 0 0 0 0 0 0 0 0 0 0 0
0 0 0 0 0 0 0 0 0 0 0 0 0 0 0 0 0 0 0 0 0 0 0 1 1 0 0 0 0 0 0 0 0 0 0 0 0 0 0 0 0 0 0 0
0 0 0 0 0 0 0 0 0 0 0 0 0 0 0 0 0 0 0 0 0 0 0 1 1 1 0 0 0 0 0 0 0 0 0 0 0 0 0 0 0 0 0 0
0 0 0 0 0 0 0 0 0 0 0 0 0 0 0 0 0 0 0 0 0 0 0 0 1 1 1 0 0 0 0 0 0 0 0 0 0 0 0 0 0 0 0 0
0 0 0 0 0 0 0 0 0 0 0 0 0 0 0 0 0 0 0 0 0 0 0 0 0 1 1 0 0 0 0 0 0 0 0 0 0 0 0 0 0 0 0 0
0 0 0 0 0 0 0 0 0 0 0 0 0 0 0 0 0 0 0 0 0 0 0 0 0 0 0 0 0 0 0 0 0 0 0 0 0 0 0 0 0 0 0 0
0 0 0 0 0 0 0 0 0 0 0 0 0 0 0 0 0 0 0 0 0 0 0 0 0 0 0 0 0 0 0 0 0 0 0 0 0 0 0 0 0 0 0 0
0 0 0 0 0 0 0 0 0 0 0 0 0 0 0 0 0 0 0 0 0 0 0 0 0 0 0 0 0 0 0 0 0 0 0 0 0 0 0 0 0 0 0 0
0 0 0 0 0 0 0 0 0 0 0 0 0 0 0 0 0 0 0 0 0 0 0 0 0 0 0 0 0 0 0 0 0 0 0 0 0 0 0 0 0 0 0 0
0 0 0 0 0 0 0 0 0 0 0 0 0 0 0 0 0 0 0 0 0 0 0 0 0 0 0 0 0 0 0 0 0 0 0 0 0 0 0 0 0 0 0 0
0 0 0 0 0 0 0 0 0 0 0 0 0 0 0 0 0 0 0 0 0 0 0 0 0 0 0 0 0 0 0 0 0 0 0 0 0 0 0 0 0 0 0 0
0 0 0 0 0 0 0 0 0 0 0 0 0 0 0 0 0 0 0 0 0 0 0 0 0 0 0 0 0 0 0 0 0 0 0 0 0 0 0 0 0 0 0 0
0 0 0 0 0 0 0 0 0 0 0 0 0 0 0 0 0 0 0 0 0 0 0 1 1 0 0 0 0 0 0 0 0 0 0 0 0 0 0 0 0 0 0 0
0 0 0 0 0 0 0 0 0 0 0 0 0 0 0 0 0 0 0 0 0 0 1 1 1 1 0 0 0 0 0 0 0 0 0 0 0 0 0 0 0 0 0 0
0 0 0 0 0 0 0 0 0 0 0 0 0 0 0 0 0 0 0 0 0 0 0 1 1 1 0 0 0 0 0 0 0 0 0 0 0 0 0 0 0 0 0 0
0 0 0 0 0 0 0 0 0 0 0 0 0 0 0 0 0 0 0 0 0 0 0 0 1 0 0 0 0 0 0 0 0 0 0 0 0 0 0 0 0 0 0 0
0 0 0 0 0 0 0 0 0 0 0 0 0 0 0 0 0 0 0 0 0 0 0 0 0 0 0 0 0 0 0 0 0 0 0 0 0 0 0 0 0 0 0 0
0 0 0 0 0 0 0 0 0 0 0 0 0 0 0 0 0 0 0 0 0 0 0 0 0 0 0 0 0 0 0 0 0 0 0 0 0 0 0 0 0 0 0 0
0 0 0 0 0 0 0 0 0 0 0 0 0 0 0 0 0 0 0 0 0 0 0 0 0 0 0 0 0 0 0 0 0 0 0 0 0 0 1 0 0 0 0 0
0 0 0 0 0 0 0 0 0 0 0 0 0 0 0 0 0 0 0 0 0 0 0 0 0 0 0 0 0 0 0 0 0 0 0 0 0 0 0 1 0 0 0 0
0 0 0 0 0 0 0 0 0 0 0 0 0 0 0 0 0 0 0 0 0 0 0 0 0 0 0 0 0 0 0 0 0 0 0 0 0 0 0 0 1 0 1 1
0 0 0 0 0 0 0 0 0 0 0 0 0 0 0 0 0 0 0 0 0 0 0 0 0 0 0 0 0 0 0 0 0 0 0 0 0 0 0 0 0 0 0 1
Wind_Speed
1 3 1 5 5 5 3 2 1 3 3 3 3 4 5 5 4 5 5 6 7 7 6 6 7 6 5 5 5 5 4 3 3 2 2 2 2 1 2 2 3 3 3 4
3 1 5 3 2 2 2 1 1 2 2 3 3 3 3 6 7 8 8 7 7 6 5 6 7 6 6 6 5 5 5 4 4 3 2 2 2 1 1 1 3 3 3 3
4 4 3 2 1 1 1 2 3 2 1 1 1 3 2 3 4 5 7 7 7 9 9 8 7 6 6 6 7 6 5 5 4 4 3 3 3 3 2 2 2 2 3 3
2 3 1 1 2 3 1 2 2 2 2 2 1 2 5 4 4 6 7 7 7 8 9 9 8 8 8 7 6 6 6 5 5 4 4 4 3 2 1 0 0 2 3 3
2 2 1 1 3 3 3 2 1 1 1 1 1 1 6 2 4 7 8 9 8 9 11 11 10 9 8 7 6 6 6 5 5 5 5 5 3 2 1 1 2 2 2 3
3 3 3 4 2 2 3 4 5 4 3 1 3 3 5 4 7 7 8 9 9 10 11 10 9 7 7 6 6 6 7 5 5 5 5 5 5 3 3 2 2 1 1 2
2 3 2 2 1 1 4 6 4 4 3 4 2 2 6 6 6 8 9 10 10 10 11 10 9 8 7 7 7 7 8 6 5 5 5 5 5 5 4 3 3 2 1 0
2 4 4 3 5 4 3 7 6 3 3 4 2 2 6 5 4 5 6 7 8 9 10 11 11 9 8 9 8 8 8 6 6 5 5 4 4 3 3 3 3 3 2 2
5 4 3 4 3 6 3 3 5 5 1 1 2 3 5 3 0 3 5 6 8 10 10 10 10 9 9 9 9 9 9 7 6 6 5 5 4 4 4 3 3 2 2 2
6 3 3 3 1 0 4 5 4 3 2 1 2 3 4 4 3 3 5 7 8 9 9 10 9 9 9 8 7 8 8 8 7 6 6 5 4 5 4 4 4 3 2 2
3 4 2 1 4 5 2 2 3 3 4 4 2 6 6 7 6 5 6 7 8 9 9 9 9 8 7 7 7 7 7 6 6 6 5 5 4 4 4 4 4 4 3 3
1 4 2 5 4 5 5 5 6 4 2 3 3 7 5 6 5 5 5 5 7 8 8 8 8 8 7 7 7 7 7 7 7 6 6 6 5 5 4 4 4 4 3 3
3 4 2 4 5 2 2 3 4 5 4 3 3 6 3 2 3 4 5 5 6 7 7 7 7 8 8 8 7 7 7 7 6 6 6 6 5 5 5 5 4 4 4 3
4 4 6 7 6 4 3 4 4 5 4 3 5 5 4 3 4 4 5 6 7 8 8 8 7 8 8 8 8 7 7 7 7 7 7 6 6 6 6 5 4 4 4 4
4 2 3 5 5 4 4 5 5 6 7 7 7 7 7 7 7 6 5 6 7 7 8 9 9 8 7 7 7 7 7 7 7 7 7 7 6 5 5 5 4 4 4 4
2 2 0 2 2 2 3 5 5 6 6 6 5 5 6 5 3 4 5 7 7 8 9 9 10 9 9 9 8 7 7 7 7 7 7 6 5 5 5 5 5 4 4 3
1 2 2 3 3 2 5 6 6 4 5 6 7 7 4 3 4 6 7 7 8 8 7 9 9 10 10 10 9 9 8 6 7 7 6 6 6 6 6 6 5 5 5 4
5 3 3 1 0 6 9 5 5 5 4 5 5 5 6 7 6 5 5 7 7 7 8 7 8 8 8 8 7 7 7 7 7 6 6 7 7 6 5 5 6 5 4 4
7 6 4 3 3 6 6 3 3 5 3 3 4 3 4 4 3 1 2 5 7 8 7 7 7 7 7 7 8 8 7 7 7 7 7 7 8 7 6 6 6 5 4 4
5 6 5 4 4 7 7 5 3 4 3 4 4 4 3 5 3 4 4 3 5 5 5 5 5 5 6 6 7 8 7 7 8 8 8 7 8 8 8 7 6 4 4 5
3 3 5 5 5 7 7 5 2 5 7 4 4 5 5 5 6 4 3 3 3 4 4 5 5 5 6 6 7 7 7 8 8 6 6 6 7 7 7 6 5 4 4 4
6 5 5 5 5 9 5 1 5 6 3 3 4 4 4 4 3 3 3 2 3 3 3 5 5 4 4 6 7 7 7 6 5 5 6 6 6 6 6 6 5 5 5 5
5 7 6 7 7 5 3 4 3 3 3 2 3 3 5 4 3 3 3 2 2 2 2 3 5 4 3 5 6 7 6 5 5 5 5 5 6 5 6 6 6 4 4 4
3 1 3 2 4 3 1 1 0 2 3 2 3 4 5 4 4 3 3 2 1 1 2 2 4 4 3 3 5 5 5 6 7 7 6 5 5 5 4 4 5 5 5 5
4 2 2 2 3 2 3 2 1 2 3 3 3 3 4 5 4 3 3 2 1 1 1 2 3 4 4 4 4 4 5 6 6 6 5 5 5 5 5 4 4 5 5 6
4 4 4 5 5 4 4 3 1 2 1 2 3 3 2 4 4 3 3 2 2 1 1 1 2 3 3 3 3 3 4 6 7 5 5 4 4 3 4 4 2 0 2 5
Wind_Direction
43 81 190 223 203 189 174 159 221 244 211 153 190 214 217 204 183 181 183 192 203 208 190 164 162 160 159 159 150 148 144 142 125 107 99 89 67 36 29 27 44 54 64 72
47 262 232 205 191 166 151 144 225 280 201 161 200 239 221 204 199 192 190 197 197 192 174 170 164 160 170 170 162 157 157 149 147 146 145 139 132 110 70 23 31 45 67 73
174 228 215 164 140 133 205 190 196 199 81 63 101 330 270 243 220 206 200 198 192 182 178 179 174 173 177 176 174 169 168 159 155 140 108 84 62 44 32 24 20 20 61 76
217 233 180 169 218 170 226 231 182 161 108 271 168 285 279 234 230 221 211 200 198 183 176 178 180 179 185 187 176 166 167 161 152 136 127 129 128 132 191 186 48 36 58 75
236 204 149 215 227 177 202 224 175 179 141 328 283 181 284 231 233 232 217 203 197 186 179 183 185 186 187 181 172 168 162 158 152 144 143 137 134 151 139 93 80 60 46 58
236 227 196 204 222 170 148 57 32 40 65 326 238 178 269 231 220 219 212 201 195 186 181 185 186 181 182 175 167 165 160 163 160 151 146 146 148 145 129 121 119 89 50 35
295 283 245 177 133 3 84 82 36 8 7 264 244 172 253 241 223 206 201 199 192 183 179 181 181 183 179 173 171 166 162 166 168 159 157 159 160 157 158 162 154 141 125 85
185 265 234 200 179 180 172 139 153 186 224 278 320 241 266 263 228 196 184 182 178 180 182 184 185 184 179 177 173 168 169 172 172 166 167 163 156 155 160 164 157 157 167 180
180 241 245 203 175 150 153 181 172 145 188 302 303 301 315 345 50 165 171 172 182 185 185 186 184 183 180 179 180 175 172 174 176 171 165 164 163 159 158 156 149 152 164 161
167 200 249 222 100 156 162 155 102 113 147 257 297 279 252 260 235 191 186 192 196 187 185 184 183 183 183 182 181 173 171 176 177 171 171 168 166 163 156 147 150 150 154 142
161 167 261 191 187 195 159 146 133 139 158 156 240 271 233 215 211 187 193 195 191 184 183 182 181 179 173 170 169 169 173 171 171 173 169 162 166 163 154 153 161 161 151 142
140 130 210 244 250 189 171 180 151 152 211 166 169 266 273 206 199 184 188 188 178 174 174 172 172 170 169 170 173 175 176 178 179 174 167 170 168 160 159 165 167 159 154 149
127 109 84 337 331 335 205 198 167 145 133 159 171 261 302 190 184 195 190 184 170 165 164 163 166 171 176 178 179 180 181 182 178 170 167 169 171 169 173 177 173 163 158 155
121 131 169 197 218 211 223 223 179 140 158 198 210 229 268 225 194 199 193 179 168 169 170 169 178 182 181 182 181 183 186 181 174 170 170 174 181 180 179 177 173 172 165 163
99 157 213 232 233 206 216 227 213 192 189 190 217 213 226 216 201 196 182 167 161 172 177 180 185 189 186 185 186 184 186 182 175 172 178 186 185 177 173 173 175 171 169 173
77 167 189 289 263 237 248 237 223 217 205 199 203 235 235 211 183 165 169 167 170 182 188 189 188 187 188 189 190 188 186 182 172 176 185 184 177 174 174 176 172 165 170 172
154 138 125 261 296 357 259 224 208 210 207 190 209 227 209 170 175 185 185 180 183 186 188 190 190 191 193 193 188 187 187 177 172 178 180 177 177 177 179 175 167 170 176 175
169 155 151 203 114 233 246 241 190 186 218 215 204 202 185 180 189 187 178 180 185 184 186 191 191 190 190 187 182 179 173 170 177 181 184 181 178 179 175 169 173 178 174 175
173 160 150 158 209 263 283 256 178 169 235 226 180 191 190 170 120 346 219 185 188 186 184 188 187 182 180 180 177 166 170 172 177 185 188 186 180 178 175 177 181 178 171 179
151 150 152 165 191 226 243 254 210 127 259 267 182 176 165 122 137 242 241 190 178 174 174 172 167 161 168 178 166 164 175 178 189 194 192 187 182 179 182 186 184 177 173 182
141 150 177 185 214 252 256 268 108 154 229 242 172 164 149 160 191 213 192 167 163 158 162 156 151 161 178 170 158 167 178 194 198 187 181 181 183 183 182 180 176 168 168 167
178 176 191 178 205 243 258 164 173 207 213 187 159 155 144 153 144 121 122 141 143 144 148 149 148 160 173 168 163 173 191 198 183 171 173 179 182 184 177 170 174 171 165 165
192 191 186 190 214 240 234 198 214 170 159 183 160 160 144 134 134 131 127 125 138 140 154 158 154 158 167 173 171 183 196 179 168 165 177 182 183 185 174 173 176 173 173 174
274 179 151 207 257 259 283 358 3 152 138 150 145 145 134 133 141 132 125 120 118 146 137 150 150 157 178 185 184 190 186 172 166 169 176 179 178 182 179 178 177 178 184 186
231 184 158 220 264 328 331 345 18 58 78 81 83 111 131 126 127 137 139 141 145 151 165 148 165 176 193 193 195 194 179 168 168 170 171 173 176 176 175 179 185 189 199 194
216 185 179 214 219 191 237 266 266 83 100 106 87 69 97 130 140 139 150 157 156 164 165 141 164 179 192 187 194 195 179 169 165 166 170 173 171 172 168 162 146 115 201 213